{"data":{"norad_id":51642,"epoch":"2026-05-25T02:53:46.929120Z","epoch_age_seconds":75274,"freshness":"FRESH","line1":"1 51642U 22012W   26145.12068205 -.00000610  00000+0 -17844-2 0  9991","line2":"2 51642  87.8853  40.8575 0002228  83.4365 276.7016 13.10373337206289","mean_motion":13.10373337,"eccentricity":0.0002228,"inclination_deg":87.8853,"raan_deg":40.8575,"arg_perigee_deg":83.4365,"mean_anomaly_deg":276.7016,"bstar":-0.0017844,"rev_number":20628,"period_min":109.89234589409,"perigee_km":1220.0218931361,"apogee_km":1223.4083872498,"semimajor_km":7599.8521401929,"source":"CELESTRAK","updated_at":"2026-05-25T13:38:22.580475Z"}}